Theta_e
331 330 331 328 330 331 335 333 332 336 337 337 336 336 335 336 336 335 334 349 348 348 349 346 345 346 346 346 348 348 348 347 347 346 345 345 343 343 344 344 343 342 341
331 330 328 328 328 331 334 333 330 332 334 334 334 335 335 335 334 332 336 343 347 347 347 347 345 344 344 344 346 347 346 347 346 346 345 345 342 343 342 343 343 339 339
332 329 328 327 328 330 331 332 328 330 331 333 333 334 334 335 334 332 334 337 341 346 346 345 347 346 344 344 344 345 346 345 346 346 345 345 343 343 343 342 343 341 339
333 331 329 327 329 330 331 331 329 328 330 331 332 333 335 334 334 333 335 335 335 336 343 344 346 345 346 344 344 344 346 344 343 343 344 344 344 342 342 344 344 342 341
335 333 331 331 329 331 331 331 330 328 328 330 330 333 332 332 333 335 333 335 335 334 334 341 343 343 343 343 342 343 345 345 342 342 344 344 344 344 342 341 343 342 340
338 334 334 332 330 330 331 330 330 329 326 330 332 334 332 333 334 334 332 335 333 334 331 332 337 337 341 342 341 342 344 345 344 343 344 342 343 344 343 341 342 342 341
340 336 335 333 333 330 331 331 329 328 327 329 326 324 328 332 332 332 333 332 331 332 331 333 331 332 333 340 341 342 343 344 344 344 342 342 343 344 343 343 341 341 341
344 340 336 335 334 333 329 330 330 324 328 328 324 326 322 323 325 329 330 330 328 329 331 331 331 330 331 332 335 341 343 343 343 344 342 340 343 344 342 342 341 341 342
344 342 339 336 337 336 332 330 331 327 324 326 328 325 319 315 316 322 325 326 324 325 326 329 330 330 330 329 334 338 341 343 344 343 343 341 342 343 342 341 341 341 340
342 343 340 338 338 336 333 331 331 330 329 327 329 330 327 322 318 314 321 324 323 324 325 326 327 330 330 327 330 334 336 339 343 343 343 342 342 342 341 341 339 340 339
341 343 341 338 336 335 333 332 331 331 330 329 327 327 327 326 323 319 315 314 320 322 323 325 325 327 326 325 326 329 333 335 336 339 341 342 341 342 340 340 340 339 338
336 341 341 339 337 337 334 333 334 334 330 331 329 328 326 324 320 318 311 311 313 316 321 323 323 325 326 325 327 329 330 330 330 331 333 337 340 340 339 339 339 339 338
332 336 338 338 337 339 337 334 335 332 331 329 329 329 325 325 322 319 314 312 312 314 317 320 322 324 328 327 327 329 330 328 326 326 328 331 335 337 337 338 338 337 337
335 336 336 336 336 336 336 336 334 333 331 328 327 326 326 323 320 319 316 314 310 310 314 315 322 324 327 328 327 330 328 327 325 323 324 327 330 332 333 333 334 334 334
335 334 335 335 336 339 338 336 332 331 331 326 325 323 321 322 321 320 319 317 313 307 308 316 318 324 327 328 327 330 327 326 326 323 323 324 326 327 328 328 329 329 329
336 334 334 334 338 338 336 334 330 332 330 324 324 322 322 322 323 322 321 318 316 312 309 316 319 323 324 327 330 329 328 325 323 322 324 323 322 323 324 324 325 326 327
334 334 334 336 336 334 331 330 331 329 326 324 323 323 323 325 322 321 319 317 316 315 312 315 318 322 323 325 324 326 326 325 323 322 323 322 320 320 321 321 322 322 322
334 336 336 336 336 334 332 330 326 326 324 323 323 323 324 327 324 321 318 316 315 317 315 314 318 323 323 324 325 324 325 326 325 322 320 319 318 317 317 318 318 318 317
335 337 336 334 334 333 331 328 326 325 325 324 324 324 323 325 323 319 317 316 316 320 320 319 320 324 323 323 321 322 321 321 323 323 318 317 316 316 316 316 316 314 313
336 334 334 333 333 330 327 327 325 324 324 325 326 326 326 326 321 321 319 317 318 318 320 322 321 321 320 321 320 319 317 320 320 322 320 319 317 316 315 315 316 315 311
331 328 327 326 327 327 327 328 327 325 323 323 325 326 327 327 323 321 321 319 319 317 321 321 319 319 318 318 316 318 316 317 318 319 319 320 321 320 317 316 320 317 311
326 324 323 323 322 320 304 313 321 323 323 322 321 322 322 322 320 315 317 317 321 320 319 317 317 317 317 317 318 317 317 316 312 321 319 317 321 319 319 320 312 309 308
323 323 323 321 318 314 303 305 312 323 321 321 321 322 325 323 318 320 311 313 312 311 316 316 317 318 318 318 319 317 318 315 314 318 319 315 319 318 319 316 307 306 306
326 324 321 318 315 314 304 306 312 323 322 321 322 325 324 322 320 321 321 319 319 318 317 319 318 318 319 320 320 320 317 316 318 317 318 313 316 313 316 311 307 306 304
324 320 317 316 317 317 303 306 316 320 318 317 322 324 324 320 304 306 319 316 314 314 308 308 309 306 305 307 314 319 316 315 312 312 315 314 313 312 313 313 312 306 304
323 322 319 317 311 316 302 303 314 320 319 317 316 316 309 313 300 305 318 316 316 315 316 315 313 307 309 310 308 318 317 314 312 311 314 313 312 313 309 311 313 311 310
Wind_Speed
7 7 7 6 6 5 7 6 6 7 7 7 6 8 10 8 7 3 3 13 16 17 15 14 14 13 13 11 11 11 11 11 11 12 11 13 12 11 10 14 15 14 13
8 8 7 7 6 7 7 8 8 8 8 7 8 10 11 4 6 5 4 6 15 14 13 14 13 12 12 12 13 12 12 11 12 12 13 12 13 12 13 14 15 15 13
9 9 8 8 7 7 9 7 6 6 5 6 8 7 3 6 6 5 5 4 6 13 13 12 13 13 14 15 15 14 13 12 12 12 13 13 14 14 14 14 15 15 14
10 10 8 8 7 7 8 8 7 7 7 6 7 4 5 6 7 6 5 5 4 4 9 14 15 14 15 15 15 17 15 14 14 13 15 15 14 14 13 16 16 17 15
12 10 9 8 8 8 8 8 7 7 6 6 4 5 5 5 6 4 7 6 7 5 5 11 14 14 13 15 15 16 16 15 13 13 12 15 16 15 13 13 17 17 18
12 11 9 9 9 8 8 6 9 7 4 7 5 5 4 5 4 5 5 4 6 6 4 7 4 6 12 13 14 14 15 16 15 14 13 14 16 16 15 16 17 18 19
11 11 9 9 10 11 10 10 6 6 6 5 4 1 2 4 4 4 4 4 5 5 6 5 5 4 4 13 13 12 14 17 16 15 13 13 14 16 15 16 16 17 16
11 11 11 10 12 9 7 9 10 3 4 5 4 2 1 3 2 4 4 4 5 3 4 6 5 5 5 4 7 12 13 13 16 15 12 12 13 13 13 13 12 13 13
11 13 13 10 10 10 9 9 9 9 5 4 4 5 2 4 1 2 2 2 1 2 3 5 5 6 6 5 6 8 12 11 14 15 12 12 14 12 12 12 13 14 18
9 13 12 11 11 8 7 7 7 6 5 5 1 1 1 5 3 3 2 2 1 3 5 4 4 5 6 4 7 8 9 12 13 14 14 14 15 14 14 13 14 18 20
9 11 11 11 8 5 6 7 6 6 4 4 4 2 2 2 3 3 4 3 2 2 3 4 4 4 5 5 4 4 8 10 10 11 13 14 16 16 15 15 18 20 20
4 8 9 9 7 6 6 5 6 7 6 4 3 3 3 4 3 3 2 3 3 3 2 3 4 4 4 4 6 8 7 8 8 11 11 13 16 16 18 19 20 21 22
3 7 8 8 6 6 6 6 6 5 6 4 4 3 3 3 3 3 3 2 3 2 2 2 3 2 3 4 4 6 7 5 8 9 10 11 15 15 18 20 20 21 20
6 7 7 6 6 6 6 6 4 4 6 4 7 4 3 3 4 4 5 5 1 1 1 3 1 1 3 3 3 7 4 6 7 7 9 11 15 15 16 18 18 16 18
5 6 7 8 7 7 6 7 5 5 5 5 5 5 3 3 4 4 4 4 5 3 4 3 1 1 2 2 4 4 5 6 9 9 10 11 13 13 13 16 16 17 16
8 8 6 7 7 6 7 7 5 5 6 4 3 6 4 3 3 2 3 3 3 4 3 3 1 2 2 2 3 4 3 6 8 10 11 13 13 15 16 15 16 15 16
8 7 6 6 7 7 7 7 5 6 6 6 5 6 6 5 3 3 3 2 3 3 3 1 1 2 3 4 5 5 5 4 3 9 12 15 15 16 16 16 14 13 13
7 8 7 7 8 8 7 6 6 6 7 7 6 6 6 4 5 4 3 4 3 3 4 4 2 2 4 4 6 7 5 5 3 8 11 15 15 15 15 15 12 13 13
8 8 9 9 9 9 7 6 7 7 6 7 7 6 6 6 5 4 4 4 3 2 2 4 4 3 3 4 7 6 6 5 4 9 11 14 14 15 15 14 13 13 13
10 9 8 9 9 7 6 6 6 6 6 6 6 6 6 6 7 6 5 6 4 4 4 6 6 4 4 5 4 7 5 4 5 4 6 7 10 13 13 12 13 12 12
9 7 7 6 6 6 3 6 6 6 6 5 5 5 5 6 8 8 6 6 6 5 6 6 5 4 3 4 7 3 4 4 5 3 5 4 5 5 6 9 10 11 10
9 9 7 7 8 5 4 7 7 5 6 6 5 3 3 5 6 10 9 12 11 10 7 6 4 6 4 5 6 6 7 5 3 2 4 4 4 4 4 4 8 9 9
8 8 8 7 6 5 4 6 7 5 5 5 6 5 4 3 4 5 6 10 7 5 8 6 10 8 7 6 8 8 6 3 3 2 6 3 2 4 3 4 8 10 9
10 8 7 7 6 3 3 7 8 5 5 3 6 6 7 4 3 9 9 7 6 5 4 4 7 8 8 9 8 6 7 7 6 4 2 3 2 3 2 2 5 8 9
9 6 5 7 8 4 4 8 8 6 5 5 5 4 7 6 6 10 12 10 6 4 7 8 10 12 15 13 10 9 7 9 3 2 2 3 2 2 1 2 3 6 9
8 7 7 5 7 6 6 7 6 4 6 5 5 6 8 7 10 10 10 10 9 5 7 5 6 7 10 11 12 7 8 9 5 2 2 3 3 3 1 2 3 3 4
Wind_Direction
191 191 203 190 195 178 194 204 204 206 217 222 213 223 237 240 258 246 239 208 189 204 205 207 203 204 200 197 194 196 197 192 193 202 200 174 178 187 189 193 178 167 161
188 200 200 199 195 188 198 204 204 208 218 217 222 228 245 250 250 229 220 212 198 204 211 205 206 210 218 213 205 201 201 200 197 194 202 186 190 186 200 189 171 173 178
192 195 204 203 199 192 196 206 209 211 213 217 225 229 222 241 239 217 202 199 199 206 212 210 207 205 223 219 215 211 205 200 200 192 189 189 190 185 190 198 186 180 180
190 192 201 207 190 187 194 203 203 211 215 218 225 198 214 222 227 200 185 196 205 207 214 213 213 213 214 226 222 216 213 209 204 202 190 193 192 197 200 201 191 182 176
194 189 202 206 179 190 198 197 208 201 204 217 206 208 213 217 220 193 199 189 212 194 207 228 219 221 218 226 226 223 214 207 208 209 198 194 199 204 209 210 192 188 180
196 194 204 201 184 191 197 189 203 201 178 207 217 219 218 223 215 211 215 227 223 213 191 217 223 224 224 225 229 224 224 210 206 209 199 200 193 200 211 213 203 191 187
195 192 205 196 190 202 195 196 184 195 210 168 111 29 259 236 233 235 242 234 229 226 201 219 217 197 235 230 221 216 228 213 207 202 198 203 198 201 209 211 208 189 193
199 194 198 197 198 200 191 181 190 167 187 168 151 125 207 325 311 257 248 236 231 218 205 222 204 208 203 232 206 211 217 218 202 201 195 196 201 200 207 211 194 187 180
195 195 196 192 192 196 197 190 188 179 161 189 192 145 133 220 303 315 315 277 253 162 245 234 201 198 198 197 197 210 205 201 201 200 192 189 199 197 195 178 168 155 156
190 198 183 179 189 193 174 184 183 187 154 162 181 236 84 142 171 315 332 0 258 207 221 228 210 203 193 194 191 212 214 205 197 201 193 194 187 180 172 166 167 161 159
196 185 173 174 169 166 162 167 165 174 169 154 153 172 140 103 90 136 275 299 336 240 243 247 245 208 187 167 199 204 196 186 190 192 190 191 183 180 180 172 150 154 166
174 162 157 162 162 159 167 180 181 172 175 166 143 181 153 153 179 151 206 242 219 297 322 303 241 202 169 178 183 171 150 170 182 195 184 179 177 173 172 168 162 165 157
159 153 148 160 169 171 167 160 167 162 142 142 161 170 143 169 142 150 143 195 217 265 284 326 315 218 171 167 180 166 138 145 182 168 164 162 157 167 170 168 164 165 167
161 149 145 142 158 165 150 154 141 144 150 168 171 134 145 162 153 163 158 145 223 295 348 260 325 278 146 150 168 198 167 182 182 163 158 159 159 166 177 164 164 163 149
139 134 142 158 165 146 140 142 135 152 142 141 159 161 146 172 160 164 163 160 154 181 232 246 208 263 153 102 177 168 157 186 158 165 160 154 162 155 148 141 144 149 156
137 153 173 169 157 136 144 136 143 148 141 155 151 154 173 145 154 162 177 166 144 145 187 203 204 202 97 102 148 123 133 142 137 138 145 147 136 141 139 142 148 157 157
142 152 161 143 128 134 136 140 152 147 155 157 161 169 173 160 166 168 148 146 149 136 146 159 103 95 86 101 86 92 112 86 91 134 142 134 137 139 142 146 149 143 139
136 147 141 133 143 139 144 148 155 153 160 173 175 171 183 169 158 188 159 165 163 174 146 128 108 88 90 121 113 108 94 80 93 132 141 135 140 145 141 138 140 135 140
139 133 136 138 138 149 154 159 159 166 175 177 180 184 187 179 168 184 155 166 141 111 82 114 115 87 90 108 93 84 79 70 64 132 137 138 140 136 137 145 140 138 143
133 133 138 140 152 159 150 162 163 166 174 186 191 195 183 173 175 178 161 161 135 109 99 108 98 89 82 78 84 117 91 73 102 78 83 125 137 136 137 134 136 139 150
130 120 107 101 115 118 131 165 171 176 182 186 197 191 196 177 186 173 151 153 142 123 133 128 109 120 118 125 136 101 107 99 58 80 97 102 125 123 123 122 137 145 154
111 109 104 113 111 102 93 133 152 155 167 167 169 130 144 156 176 169 156 153 165 153 151 136 149 138 123 113 125 139 130 135 102 73 97 82 123 113 114 123 135 146 156
110 103 103 103 99 108 114 132 156 144 143 170 162 146 150 94 172 139 138 142 139 141 158 146 150 150 151 144 147 145 139 99 102 118 115 85 64 96 110 119 146 159 160
120 118 108 111 113 106 106 120 117 107 104 135 155 158 111 130 147 137 127 114 113 110 122 114 140 141 131 141 149 132 120 102 92 67 67 98 76 62 83 100 176 167 166
107 108 126 117 117 106 95 97 96 91 87 72 87 109 129 140 140 125 121 120 104 65 45 110 123 127 133 135 136 130 136 133 117 108 47 107 124 98 87 182 208 195 188
116 113 101 98 113 106 81 100 103 117 102 92 57 80 94 127 134 120 124 129 127 134 116 102 88 93 126 142 154 152 151 146 130 97 198 101 127 137 176 226 204 185 215